Rock Hill, SC

7:30 AM EDT on September 20, 2017 (GMT -0400)
Rock Hill-York County-Bryant

Weather History for KUZA - March, 2013

Change the Weather History Date:

Thursday, March 14, 2013

  Actual Average Record
Temperature  
Mean Temperature 42 °F -  
Max Temperature 54 °F 64 °F 84 °F (1973)
Min Temperature 30 °F 41 °F 21 °F (1960)
Degree Days  
Heating Degree Days 23    
Moisture  
Dew Point 18 °F    
Average Humidity 41    
Maximum Humidity 59    
Minimum Humidity 21    
Precipitation  
Precipitation 0.00 in - - ()
Sea Level Pressure  
Sea Level Pressure 30.23 in    
Wind  
Wind Speed 7 mph (NW)    
Max Wind Speed 14 mph    
Max Gust Speed -    
Visibility 10 miles    
Events      
Averages and records for this station are not official NWS values.
T = Trace of Precipitation, MM = Missing Value Source: NWS Daily Summary

Daily Weather History Graph

Daily Weather History Graph

Search for Another Location

Airport or City:

Trip Planner

Search our weather history database for the weather conditions in past years. The results will help you decide how hot, cold, wet, or windy it might be!

Date:

Astronomy

Mar. 14, 2013 Rise Set
Actual Time 7:35 AM EDT 7:31 PM EDT
Civil Twilight 7:10 AM EDT 7:56 PM EDT
Nautical Twilight 6:41 AM EDT 8:25 PM EDT
Astronomical Twilight 6:11 AM EDT 8:55 PM EDT
Moon 8:57 AM EDT (3/14) 10:36 PM EDT (3/14)
Length of Visible Light 12h 45m
Length of Day
11h 55m
Waxing Crescent, 9% of the Moon is Illuminated
Mar 14
Waxing Crescent
Mar 19
First Quarter
Mar 27
Full
Apr 3
Last Quarter
Apr 10
New

Hourly Weather History & Observations

Time (EDT) Temp. Windchill Dew Point Humidity Pressure Visibility Wind Dir Wind Speed Gust Speed Precip Events Conditions
12:54 AM 36.0 °F 31.1 °F 17.1 °F 46% 30.18 in 10.0 mi NNW 5.8 mph - N/A   Clear
1:54 AM 36.0 °F 28.5 °F 17.1 °F 46% 30.19 in 10.0 mi North 10.4 mph - N/A   Clear
2:54 AM 33.1 °F 26.1 °F 18.0 °F 54% 30.20 in 10.0 mi North 8.1 mph - N/A   Clear
3:54 AM 32.0 °F 24.8 °F 18.0 °F 56% 30.22 in 10.0 mi North 8.1 mph - N/A   Clear
4:54 AM 32.0 °F 24.8 °F 17.1 °F 54% 30.22 in 10.0 mi North 8.1 mph - N/A   Clear
5:54 AM 30.0 °F - 17.1 °F 59% 30.24 in 10.0 mi Calm Calm - N/A   Clear
6:54 AM 30.9 °F 23.5 °F 17.1 °F 57% 30.27 in 10.0 mi NNW 8.1 mph - N/A   Clear
7:54 AM 30.9 °F 23.5 °F 16.0 °F 54% 30.29 in 10.0 mi NNW 8.1 mph - N/A   Clear
8:54 AM 34.0 °F 26.6 °F 16.0 °F 48% 30.31 in 10.0 mi NNW 9.2 mph - N/A   Clear
9:54 AM 39.0 °F 31.0 °F 17.1 °F 41% 30.31 in 10.0 mi North 13.8 mph - N/A   Clear
10:54 AM 41.0 °F 34.3 °F 15.1 °F 35% 30.31 in 10.0 mi NNW 11.5 mph - N/A   Clear
11:54 AM 45.0 °F 40.1 °F 16.0 °F 31% 30.30 in 10.0 mi NNE 9.2 mph - N/A   Clear
12:54 PM 46.9 °F - 16.0 °F 29% 30.28 in 10.0 mi Variable 6.9 mph - N/A   Clear
1:54 PM 50.0 °F - 18.0 °F 28% 30.25 in 10.0 mi Variable 5.8 mph - N/A   Clear
2:54 PM 52.0 °F - 15.1 °F 23% 30.23 in 10.0 mi NW 11.5 mph - N/A   Clear
3:54 PM 53.1 °F - 15.1 °F 22% 30.20 in 10.0 mi NW 10.4 mph - N/A   Clear
4:54 PM 54.0 °F - 14.0 °F 21% 30.18 in 10.0 mi WNW 4.6 mph - N/A   Clear
5:54 PM 52.0 °F - 12.9 °F 21% 30.18 in 10.0 mi WNW 6.9 mph - N/A   Clear
6:54 PM 50.0 °F - 18.0 °F 28% 30.18 in 10.0 mi WSW 5.8 mph - N/A   Clear
7:54 PM 46.0 °F 43.1 °F 21.9 °F 39% 30.18 in 10.0 mi SW 5.8 mph - N/A   Clear
8:54 PM 45.0 °F 43.5 °F 19.9 °F 37% 30.19 in 10.0 mi SW 3.5 mph - N/A   Clear
9:54 PM 39.0 °F - 24.1 °F 55% 30.20 in 10.0 mi Calm Calm - N/A   Clear
10:54 PM 37.9 °F 34.4 °F 23.0 °F 55% 30.21 in 10.0 mi Variable 4.6 mph - N/A   Clear
11:54 PM 39.0 °F - 21.9 °F 50% 30.21 in 10.0 mi Calm Calm - N/A   Clear